Location: ??????????
(41.2581°N, 22.8006°E)
Time: 00:13:39
(UTC+00:00)

GEOS 3 Rocket - Pass Details

Date: 19 March 2026
Orbit: 767 x 846 km, 115.0° (Epoch: 13 April)

Event Time Altitude Azimuth Distance (km) Brightness Sun altitude
Rises 01:28:58 0° 54° (NE) 3,407 7.9 -33.8°
Reaches altitude 10° 01:32:20 10° 76° (ENE) 2,461 6.9 -33.3°
Maximum altitude 01:35:26 15° 112° (ESE) 2,084 6.0 -32.8°
Enters shadow 01:37:28 13° 137° (SE) 2,242 6.0 -32.5°
